Time,TemperatureF,DewpointF,PressureIn,WindDirection,WindDirectionDegrees,WindSpeedMPH,WindSpeedGustMPH,Humidity,HourlyPrecipIn,Conditions,Clouds,dailyrainin,SolarRadiationWatts/m^2,SoftwareType,DateUTC
2013-04-06 00:00:00,36.4,26.1,30.01,East,101,6.0,12.0,66,0.00,,,0.27,32767.00,ALWS 1.0-beta,2013-04-06 06:00:00,
2013-04-06 00:05:00,36.2,26.3,30.01,ESE,115,6.0,14.0,67,0.00,,,0.00,32767.00,ALWS 1.0-beta,2013-04-06 06:05:00,
2013-04-06 00:10:00,35.8,25.9,30.01,ESE,121,6.0,10.0,67,0.00,,,0.00,32767.00,ALWS 1.0-beta,2013-04-06 06:10:00,
2013-04-06 00:15:00,35.7,26.2,30.01,East,89,9.0,9.0,68,0.00,,,0.00,32767.00,ALWS 1.0-beta,2013-04-06 06:15:00,
2013-04-06 00:20:00,36.1,26.2,30.00,ESE,104,10.0,10.0,67,0.00,,,0.00,32767.00,ALWS 1.0-beta,2013-04-06 06:20:00,
2013-04-06 00:25:00,36.1,26.2,30.01,ESE,114,11.0,11.0,67,0.00,,,0.00,32767.00,ALWS 1.0-beta,2013-04-06 06:25:00,
2013-04-06 00:30:00,36.1,25.9,30.01,ESE,105,6.0,6.0,66,0.00,,,0.00,32767.00,ALWS 1.0-beta,2013-04-06 06:30:00,
2013-04-06 00:35:00,36.2,26.0,30.01,ESE,106,5.0,12.0,66,0.00,,,0.00,32767.00,ALWS 1.0-beta,2013-04-06 06:35:00,
2013-04-06 00:40:00,36.3,26.0,30.01,East,90,6.0,6.0,66,0.00,,,0.00,32767.00,ALWS 1.0-beta,2013-04-06 06:40:00,
2013-04-06 00:45:00,36.4,25.8,30.01,ESE,102,7.0,7.0,65,0.00,,,0.00,32767.00,ALWS 1.0-beta,2013-04-06 06:45:00,
2013-04-06 00:50:00,35.9,25.7,30.00,East,86,9.0,14.0,66,0.00,,,0.00,32767.00,ALWS 1.0-beta,2013-04-06 06:50:00,
2013-04-06 00:55:00,35.6,25.4,30.00,East,98,5.0,5.0,66,0.00,,,0.00,32767.00,ALWS 1.0-beta,2013-04-06 06:55:00,
2013-04-06 01:00:00,35.3,25.5,30.00,East,99,7.0,7.0,67,0.00,,,0.00,32767.00,ALWS 1.0-beta,2013-04-06 07:00:00,
2013-04-06 01:07:00,35.6,25.7,30.00,East,85,11.0,11.0,67,0.00,,,0.00,32767.00,ALWS 1.0-beta,2013-04-06 07:07:00,
2013-04-06 01:12:00,36.0,25.8,30.00,ENE,78,10.0,14.0,66,0.00,,,0.00,32767.00,ALWS 1.0-beta,2013-04-06 07:12:00,
2013-04-06 01:17:00,36.1,25.5,30.00,ESE,106,7.0,10.0,65,0.00,,,0.00,32767.00,ALWS 1.0-beta,2013-04-06 07:17:00,
2013-04-06 01:22:00,36.3,25.7,30.00,East,83,4.0,9.0,65,0.00,,,0.00,32767.00,ALWS 1.0-beta,2013-04-06 07:22:00,
2013-04-06 01:27:00,36.5,25.5,30.00,East,101,5.0,5.0,64,0.00,,,0.00,32767.00,ALWS 1.0-beta,2013-04-06 07:27:00,
2013-04-06 01:32:00,35.9,25.3,30.01,ESE,116,13.0,13.0,65,0.00,,,0.00,32767.00,ALWS 1.0-beta,2013-04-06 07:32:00,
2013-04-06 01:37:00,35.4,25.2,30.01,ESE,123,8.0,8.0,66,0.00,,,0.00,32767.00,ALWS 1.0-beta,2013-04-06 07:37:00,
2013-04-06 01:42:00,34.4,25.0,30.01,SE,125,6.0,6.0,68,0.00,,,0.00,32767.00,ALWS 1.0-beta,2013-04-06 07:42:00,
2013-04-06 01:47:00,33.6,24.9,30.02,SE,124,7.0,7.0,70,0.00,,,0.00,32767.00,ALWS 1.0-beta,2013-04-06 07:47:00,
2013-04-06 01:52:00,34.1,25.4,30.01,SE,133,6.0,11.0,70,0.00,,,0.00,32767.00,ALWS 1.0-beta,2013-04-06 07:52:00,
2013-04-06 01:57:00,34.3,25.5,30.01,ESE,109,4.0,11.0,70,0.00,,,0.00,32767.00,ALWS 1.0-beta,2013-04-06 07:57:00,
2013-04-06 02:02:00,34.4,25.3,30.01,East,95,12.0,12.0,69,0.00,,,0.00,32767.00,ALWS 1.0-beta,2013-04-06 08:02:00,
2013-04-06 02:07:00,34.4,25.0,30.01,ESE,114,6.0,12.0,68,0.00,,,0.00,32767.00,ALWS 1.0-beta,2013-04-06 08:07:00,
2013-04-06 02:12:00,34.5,25.0,30.02,East,92,10.0,13.0,68,0.00,,,0.00,32767.00,ALWS 1.0-beta,2013-04-06 08:12:00,
2013-04-06 02:17:00,34.9,25.1,30.02,East,100,7.0,15.0,67,0.00,,,0.00,32767.00,ALWS 1.0-beta,2013-04-06 08:17:00,
2013-04-06 02:22:00,35.0,25.2,30.02,ESE,104,12.0,14.0,67,0.00,,,0.00,32767.00,ALWS 1.0-beta,2013-04-06 08:22:00,
2013-04-06 02:27:00,35.2,25.4,30.01,ESE,103,9.0,14.0,67,0.00,,,0.00,32767.00,ALWS 1.0-beta,2013-04-06 08:27:00,
2013-04-06 02:32:00,35.5,25.3,30.01,ESE,103,12.0,13.0,66,0.00,,,0.00,32767.00,ALWS 1.0-beta,2013-04-06 08:32:00,
2013-04-06 02:37:00,35.4,25.2,30.01,East,98,11.0,14.0,66,0.00,,,0.00,32767.00,ALWS 1.0-beta,2013-04-06 08:37:00,
2013-04-06 02:42:00,35.5,24.9,30.01,East,95,5.0,13.0,65,0.00,,,0.00,32767.00,ALWS 1.0-beta,2013-04-06 08:42:00,
2013-04-06 02:47:00,35.5,24.9,30.01,East,98,6.0,11.0,65,0.00,,,0.00,32767.00,ALWS 1.0-beta,2013-04-06 08:47:00,
2013-04-06 02:52:00,35.8,25.2,30.01,ESE,112,6.0,11.0,65,0.00,,,0.00,32767.00,ALWS 1.0-beta,2013-04-06 08:52:00,
2013-04-06 02:57:00,35.9,24.9,30.01,East,96,5.0,11.0,64,0.00,,,0.00,32767.00,ALWS 1.0-beta,2013-04-06 08:57:00,
2013-04-06 03:02:00,35.9,24.9,30.01,ESE,107,9.0,12.0,64,0.00,,,0.00,32767.00,ALWS 1.0-beta,2013-04-06 09:02:00,
2013-04-06 03:07:00,35.6,24.6,30.01,East,79,13.0,16.0,64,0.00,,,0.00,32767.00,ALWS 1.0-beta,2013-04-06 09:07:00,
2013-04-06 03:12:00,35.3,24.7,30.01,East,92,12.0,16.0,65,0.00,,,0.00,32767.00,ALWS 1.0-beta,2013-04-06 09:12:00,
2013-04-06 03:17:00,35.2,24.6,30.01,ESE,102,13.0,16.0,65,0.00,,,0.00,32767.00,ALWS 1.0-beta,2013-04-06 09:17:00,
2013-04-06 03:22:00,35.1,24.5,30.01,East,100,14.0,14.0,65,0.00,,,0.00,32767.00,ALWS 1.0-beta,2013-04-06 09:22:00,
2013-04-06 03:27:00,34.9,24.7,30.01,ESE,116,6.0,12.0,66,0.00,,,0.00,32767.00,ALWS 1.0-beta,2013-04-06 09:27:00,
2013-04-06 03:32:00,34.8,24.6,30.01,ESE,109,9.0,11.0,66,0.00,,,0.00,32767.00,ALWS 1.0-beta,2013-04-06 09:32:00,
2013-04-06 03:37:00,34.9,24.7,30.01,ESE,106,12.0,13.0,66,0.00,,,0.00,32767.00,ALWS 1.0-beta,2013-04-06 09:37:00,
2013-04-06 03:42:00,34.8,24.6,30.01,ESE,106,16.0,16.0,66,0.00,,,0.00,32767.00,ALWS 1.0-beta,2013-04-06 09:42:00,
2013-04-06 03:47:00,34.8,24.6,30.01,ESE,113,6.0,13.0,66,0.00,,,0.00,32767.00,ALWS 1.0-beta,2013-04-06 09:47:00,
2013-04-06 03:52:00,34.9,24.7,30.01,ESE,109,12.0,15.0,66,0.00,,,0.00,32767.00,ALWS 1.0-beta,2013-04-06 09:52:00,
2013-04-06 03:57:00,34.8,24.6,30.01,ESE,110,10.0,13.0,66,0.00,,,0.00,32767.00,ALWS 1.0-beta,2013-04-06 09:57:00,
2013-04-06 04:02:00,34.9,24.7,30.01,East,101,13.0,13.0,66,0.00,,,0.00,32767.00,ALWS 1.0-beta,2013-04-06 10:02:00,
2013-04-06 04:07:00,35.0,24.4,30.01,ESE,108,13.0,14.0,65,0.00,,,0.00,32767.00,ALWS 1.0-beta,2013-04-06 10:07:00,
2013-04-06 04:12:00,35.0,24.4,30.02,East,94,4.0,11.0,65,0.00,,,0.00,32767.00,ALWS 1.0-beta,2013-04-06 10:12:00,
2013-04-06 04:17:00,34.8,24.6,30.02,East,93,9.0,12.0,66,0.00,,,0.00,32767.00,ALWS 1.0-beta,2013-04-06 10:17:00,
2013-04-06 04:22:00,34.7,24.5,30.02,East,98,7.0,13.0,66,0.00,,,0.00,32767.00,ALWS 1.0-beta,2013-04-06 10:22:00,
2013-04-06 04:27:00,34.6,24.4,30.02,ESE,103,10.0,13.0,66,0.00,,,0.00,32767.00,ALWS 1.0-beta,2013-04-06 10:27:00,
2013-04-06 04:32:00,34.7,24.5,30.02,ESE,117,8.0,14.0,66,0.00,,,0.00,32767.00,ALWS 1.0-beta,2013-04-06 10:32:00,
2013-04-06 04:37:00,34.5,24.3,30.03,ESE,118,6.0,12.0,66,0.00,,,0.00,32767.00,ALWS 1.0-beta,2013-04-06 10:37:00,
2013-04-06 04:42:00,34.4,24.6,30.03,East,91,10.0,13.0,67,0.00,,,0.00,32767.00,ALWS 1.0-beta,2013-04-06 10:42:00,
2013-04-06 04:47:00,34.7,24.5,30.03,ESE,113,9.0,14.0,66,0.00,,,0.00,32767.00,ALWS 1.0-beta,2013-04-06 10:47:00,
2013-04-06 04:54:00,34.7,24.9,30.04,ESE,105,3.0,11.0,67,0.00,,,0.00,32767.00,ALWS 1.0-beta,2013-04-06 10:54:00,
2013-04-06 04:59:00,34.4,24.6,30.04,SE,132,3.0,6.0,67,0.00,,,0.00,32767.00,ALWS 1.0-beta,2013-04-06 10:59:00,
2013-04-06 05:05:00,34.4,24.6,30.03,ENE,78,3.0,6.0,67,0.00,,,0.00,32767.00,ALWS 1.0-beta,2013-04-06 11:05:00,
2013-04-06 05:10:00,34.9,25.1,30.03,ESE,110,5.0,11.0,67,0.00,,,0.00,32767.00,ALWS 1.0-beta,2013-04-06 11:10:00,
2013-04-06 05:15:00,35.1,24.9,30.04,East,90,9.0,12.0,66,0.00,,,0.00,32767.00,ALWS 1.0-beta,2013-04-06 11:15:00,
2013-04-06 05:20:00,35.2,24.6,30.04,ESE,108,6.0,12.0,65,0.00,,,0.00,32767.00,ALWS 1.0-beta,2013-04-06 11:20:00,
2013-04-06 05:25:00,35.1,24.9,30.04,ESE,114,8.0,13.0,66,0.00,,,0.00,32767.00,ALWS 1.0-beta,2013-04-06 11:25:00,
2013-04-06 05:30:00,35.1,24.9,30.04,ESE,107,7.0,11.0,66,0.00,,,0.00,32767.00,ALWS 1.0-beta,2013-04-06 11:30:00,
2013-04-06 05:33:00,35.0,24.8,30.04,ESE,110,5.0,9.0,66,0.00,,,0.00,32767.00,ALWS 1.0-beta,2013-04-06 11:33:00,
2013-04-06 05:38:00,34.9,24.7,30.04,ESE,109,4.0,7.0,66,0.00,,,0.00,32767.00,ALWS 1.0-beta,2013-04-06 11:38:00,
2013-04-06 05:43:00,34.9,24.7,30.05,ESE,106,4.0,6.0,66,0.00,,,0.00,32767.00,ALWS 1.0-beta,2013-04-06 11:43:00,
2013-04-06 05:48:00,34.7,24.9,30.05,ESE,102,4.0,6.0,67,0.00,,,0.00,32767.00,ALWS 1.0-beta,2013-04-06 11:48:00,
2013-04-06 05:53:00,34.7,24.9,30.05,ESE,109,2.0,4.0,67,0.00,,,0.00,32767.00,ALWS 1.0-beta,2013-04-06 11:53:00,
2013-04-06 05:59:00,34.7,24.9,30.05,East,82,6.0,6.0,67,0.00,,,0.00,32767.00,ALWS 1.0-beta,2013-04-06 11:59:00,
2013-04-06 06:04:00,35.0,25.2,30.05,ESE,111,4.0,4.0,67,0.00,,,0.00,32767.00,ALWS 1.0-beta,2013-04-06 12:04:00,
2013-04-06 06:09:00,35.1,24.9,30.05,SE,140,6.0,6.0,66,0.00,,,0.00,32767.00,ALWS 1.0-beta,2013-04-06 12:09:00,
2013-04-06 06:14:00,35.1,25.3,30.05,ESE,119,5.0,5.0,67,0.00,,,0.00,32767.00,ALWS 1.0-beta,2013-04-06 12:14:00,
2013-04-06 06:21:00,35.2,25.4,30.05,SE,141,6.0,6.0,67,0.00,,,0.00,32767.00,ALWS 1.0-beta,2013-04-06 12:21:00,
2013-04-06 06:27:00,35.1,25.3,30.05,SSE,163,1.0,1.0,67,0.00,,,0.00,32767.00,ALWS 1.0-beta,2013-04-06 12:27:00,
2013-04-06 06:32:00,34.7,24.9,30.05,SE,145,2.0,5.0,67,0.00,,,0.00,32767.00,ALWS 1.0-beta,2013-04-06 12:32:00,
2013-04-06 06:37:00,34.4,24.6,30.05,SE,134,3.0,5.0,67,0.00,,,0.00,32767.00,ALWS 1.0-beta,2013-04-06 12:37:00,
2013-04-06 06:42:00,34.6,25.1,30.05,East,88,6.0,7.0,68,0.00,,,0.00,32767.00,ALWS 1.0-beta,2013-04-06 12:42:00,
2013-04-06 06:47:00,34.8,25.3,30.06,East,88,2.0,5.0,68,0.00,,,0.00,32767.00,ALWS 1.0-beta,2013-04-06 12:47:00,
2013-04-06 06:52:00,34.6,25.1,30.06,ESE,103,0.0,5.0,68,0.00,,,0.00,32767.00,ALWS 1.0-beta,2013-04-06 12:52:00,
2013-04-06 06:57:00,34.4,25.0,30.06,SSE,155,3.0,8.0,68,0.00,,,0.00,32767.00,ALWS 1.0-beta,2013-04-06 12:57:00,
2013-04-06 07:02:00,34.4,25.0,30.06,SSE,149,1.0,7.0,68,0.00,,,0.00,32767.00,ALWS 1.0-beta,2013-04-06 13:02:00,
2013-04-06 07:07:00,34.7,25.2,30.06,SE,126,6.0,7.0,68,0.00,,,0.00,32767.00,ALWS 1.0-beta,2013-04-06 13:07:00,
2013-04-06 07:12:00,35.0,25.2,30.06,SE,125,7.0,10.0,67,0.00,,,0.00,32767.00,ALWS 1.0-beta,2013-04-06 13:12:00,
2013-04-06 07:17:00,35.0,25.5,30.06,ESE,121,3.0,7.0,68,0.00,,,0.00,32767.00,ALWS 1.0-beta,2013-04-06 13:17:00,
2013-04-06 07:23:00,34.8,25.3,30.06,SSE,153,7.0,7.0,68,0.00,,,0.00,32767.00,ALWS 1.0-beta,2013-04-06 13:23:00,
2013-04-06 07:28:00,35.0,25.2,30.06,ESE,110,4.0,4.0,67,0.00,,,0.00,32767.00,ALWS 1.0-beta,2013-04-06 13:28:00,
2013-04-06 07:33:00,34.9,25.1,30.06,ESE,120,4.0,4.0,67,0.00,,,0.00,32767.00,ALWS 1.0-beta,2013-04-06 13:33:00,
2013-04-06 07:38:00,34.9,25.1,30.06,ESE,111,0.0,0.0,67,0.00,,,0.00,32767.00,ALWS 1.0-beta,2013-04-06 13:38:00,
2013-04-06 07:43:00,34.8,25.0,30.06,ESE,113,2.0,4.0,67,0.00,,,0.00,32767.00,ALWS 1.0-beta,2013-04-06 13:43:00,
2013-04-06 07:48:00,34.4,25.0,30.06,ESE,105,6.0,10.0,68,0.00,,,0.00,32767.00,ALWS 1.0-beta,2013-04-06 13:48:00,
2013-04-06 07:53:00,34.9,25.4,30.07,ESE,107,3.0,3.0,68,0.00,,,0.00,32767.00,ALWS 1.0-beta,2013-04-06 13:53:00,
2013-04-06 07:58:00,34.7,25.2,30.07,ENE,68,2.0,6.0,68,0.00,,,0.00,32767.00,ALWS 1.0-beta,2013-04-06 13:58:00,
2013-04-06 08:03:00,35.1,26.0,30.08,ESE,107,5.0,10.0,69,0.00,,,0.00,32767.00,ALWS 1.0-beta,2013-04-06 14:03:00,
2013-04-06 08:08:00,35.8,25.9,30.07,SE,127,7.0,9.0,67,0.00,,,0.00,32767.00,ALWS 1.0-beta,2013-04-06 14:08:00,
2013-04-06 08:13:00,35.8,25.6,30.08,SE,125,3.0,6.0,66,0.00,,,0.00,32767.00,ALWS 1.0-beta,2013-04-06 14:13:00,
2013-04-06 08:18:00,35.9,25.7,30.08,SE,125,0.0,4.0,66,0.00,,,0.00,32767.00,ALWS 1.0-beta,2013-04-06 14:18:00,
2013-04-06 08:25:00,36.7,26.4,30.08,ESE,123,2.0,2.0,66,0.00,,,0.00,32767.00,ALWS 1.0-beta,2013-04-06 14:25:00,
2013-04-06 08:30:00,37.1,26.1,30.08,ESE,123,0.0,4.0,64,0.00,,,0.00,32767.00,ALWS 1.0-beta,2013-04-06 14:30:00,
2013-04-06 08:35:00,37.4,26.0,30.09,ESE,123,0.0,0.0,63,0.00,,,0.00,32767.00,ALWS 1.0-beta,2013-04-06 14:35:00,
2013-04-06 08:40:00,38.0,26.1,30.08,ESE,123,0.0,0.0,62,0.00,,,0.00,32767.00,ALWS 1.0-beta,2013-04-06 14:40:00,
2013-04-06 08:45:00,38.4,26.1,30.08,ESE,123,0.0,0.0,61,0.00,,,0.00,32767.00,ALWS 1.0-beta,2013-04-06 14:45:00,
2013-04-06 08:50:00,38.7,26.0,30.08,ESE,122,0.0,0.0,60,0.00,,,0.00,32767.00,ALWS 1.0-beta,2013-04-06 14:50:00,
2013-04-06 08:55:00,39.2,26.5,30.09,ESE,123,0.0,0.0,60,0.00,,,0.00,32767.00,ALWS 1.0-beta,2013-04-06 14:55:00,
2013-04-06 09:00:00,40.1,27.4,30.08,ESE,122,0.0,0.0,60,0.00,,,0.00,32767.00,ALWS 1.0-beta,2013-04-06 15:00:00,
2013-04-06 09:05:00,40.4,26.8,30.09,SE,125,0.0,0.0,58,0.00,,,0.00,32767.00,ALWS 1.0-beta,2013-04-06 15:05:00,
2013-04-06 09:11:00,40.6,27.0,30.08,SE,125,0.0,0.0,58,0.00,,,0.00,32767.00,ALWS 1.0-beta,2013-04-06 15:11:00,
2013-04-06 09:17:00,40.8,27.2,30.08,SE,125,0.0,0.0,58,0.00,,,0.00,32767.00,ALWS 1.0-beta,2013-04-06 15:17:00,
2013-04-06 09:22:00,41.1,27.5,30.08,SE,125,0.0,0.0,58,0.00,,,0.00,32767.00,ALWS 1.0-beta,2013-04-06 15:22:00,
2013-04-06 09:27:00,41.5,27.8,30.08,SE,125,0.0,0.0,58,0.00,,,0.00,32767.00,ALWS 1.0-beta,2013-04-06 15:27:00,
2013-04-06 09:32:00,42.0,27.9,30.08,SE,125,0.0,0.0,57,0.00,,,0.00,32767.00,ALWS 1.0-beta,2013-04-06 15:32:00,
2013-04-06 09:38:00,42.4,27.8,30.08,SE,125,0.0,0.0,56,0.00,,,0.00,32767.00,ALWS 1.0-beta,2013-04-06 15:38:00,
2013-04-06 09:43:00,43.2,28.6,30.08,SE,125,0.0,0.0,56,0.00,,,0.00,32767.00,ALWS 1.0-beta,2013-04-06 15:43:00,
2013-04-06 09:48:00,43.5,28.4,30.08,SE,125,0.0,1.0,55,0.00,,,0.00,32767.00,ALWS 1.0-beta,2013-04-06 15:48:00,
2013-04-06 09:53:00,44.3,27.8,30.08,SE,125,0.0,0.0,52,0.00,,,0.00,32767.00,ALWS 1.0-beta,2013-04-06 15:53:00,
2013-04-06 09:58:00,44.7,27.2,30.08,SE,125,0.0,0.0,50,0.00,,,0.00,32767.00,ALWS 1.0-beta,2013-04-06 15:58:00,
2013-04-06 10:03:00,45.2,26.2,30.08,SE,125,0.0,0.0,47,0.00,,,0.00,32767.00,ALWS 1.0-beta,2013-04-06 16:03:00,
2013-04-06 10:08:00,45.7,26.6,30.08,SE,125,0.0,1.0,47,0.00,,,0.00,32767.00,ALWS 1.0-beta,2013-04-06 16:08:00,
2013-04-06 10:13:00,46.7,28.1,30.08,SE,125,3.0,3.0,48,0.00,,,0.00,32767.00,ALWS 1.0-beta,2013-04-06 16:13:00,
2013-04-06 10:18:00,46.5,26.9,30.07,SE,132,0.0,5.0,46,0.00,,,0.00,32767.00,ALWS 1.0-beta,2013-04-06 16:18:00,
2013-04-06 10:23:00,46.9,28.2,30.07,SE,132,0.0,3.0,48,0.00,,,0.00,32767.00,ALWS 1.0-beta,2013-04-06 16:23:00,
2013-04-06 10:28:00,47.6,28.4,30.07,SE,132,0.0,5.0,47,0.00,,,0.00,32767.00,ALWS 1.0-beta,2013-04-06 16:28:00,
2013-04-06 10:33:00,47.6,28.4,30.06,SE,136,0.0,3.0,47,0.00,,,0.00,32767.00,ALWS 1.0-beta,2013-04-06 16:33:00,
2013-04-06 10:38:00,47.9,27.6,30.06,SE,146,1.0,5.0,45,0.00,,,0.00,32767.00,ALWS 1.0-beta,2013-04-06 16:38:00,
2013-04-06 10:43:00,48.2,28.4,30.06,South,171,2.0,6.0,46,0.00,,,0.00,32767.00,ALWS 1.0-beta,2013-04-06 16:43:00,
2013-04-06 10:48:00,48.4,27.5,30.06,South,190,3.0,5.0,44,0.00,,,0.00,32767.00,ALWS 1.0-beta,2013-04-06 16:48:00,
2013-04-06 10:53:00,48.7,28.3,30.06,SSW,194,4.0,8.0,45,0.00,,,0.00,32767.00,ALWS 1.0-beta,2013-04-06 16:53:00,
2013-04-06 10:58:00,48.3,27.4,30.06,SSW,212,4.0,9.0,44,0.00,,,0.00,32767.00,ALWS 1.0-beta,2013-04-06 16:58:00,
2013-04-06 11:03:00,48.6,28.2,30.06,SW,221,4.0,7.0,45,0.00,,,0.00,32767.00,ALWS 1.0-beta,2013-04-06 17:03:00,
2013-04-06 11:08:00,49.1,28.1,30.06,SW,221,5.0,5.0,44,0.00,,,0.00,32767.00,ALWS 1.0-beta,2013-04-06 17:08:00,
2013-04-06 11:13:00,50.1,27.9,30.06,SSW,213,5.0,7.0,42,0.00,,,0.00,32767.00,ALWS 1.0-beta,2013-04-06 17:13:00,
2013-04-06 11:18:00,50.3,27.5,30.05,SSW,211,0.0,5.0,41,0.00,,,0.00,32767.00,ALWS 1.0-beta,2013-04-06 17:18:00,
2013-04-06 11:23:00,50.8,28.5,30.05,SSW,211,0.0,5.0,42,0.00,,,0.00,32767.00,ALWS 1.0-beta,2013-04-06 17:23:00,
2013-04-06 11:28:00,50.4,28.2,30.05,SSW,198,1.0,7.0,42,0.00,,,0.00,32767.00,ALWS 1.0-beta,2013-04-06 17:28:00,
2013-04-06 11:33:00,49.8,26.5,30.05,South,187,0.0,7.0,40,0.00,,,0.00,32767.00,ALWS 1.0-beta,2013-04-06 17:33:00,
2013-04-06 11:38:00,49.5,25.6,30.05,South,185,2.0,7.0,39,0.00,,,0.00,32767.00,ALWS 1.0-beta,2013-04-06 17:38:00,
2013-04-06 11:43:00,49.3,26.6,30.05,SSW,202,4.0,10.0,41,0.00,,,0.00,32767.00,ALWS 1.0-beta,2013-04-06 17:43:00,
2013-04-06 11:48:00,49.3,26.6,30.04,South,188,7.0,12.0,41,0.00,,,0.00,32767.00,ALWS 1.0-beta,2013-04-06 17:48:00,
2013-04-06 11:53:00,49.2,26.5,30.04,SW,229,9.0,15.0,41,0.00,,,0.00,32767.00,ALWS 1.0-beta,2013-04-06 17:53:00,
2013-04-06 11:58:00,49.6,26.9,30.05,SSW,213,13.0,13.0,41,0.00,,,0.00,32767.00,ALWS 1.0-beta,2013-04-06 17:58:00,
2013-04-06 12:03:00,49.8,27.1,30.04,SSW,195,17.0,18.0,41,0.00,,,0.00,32767.00,ALWS 1.0-beta,2013-04-06 18:03:00,
2013-04-06 12:08:00,49.7,26.4,30.04,WSW,237,16.0,17.0,40,0.00,,,0.00,32767.00,ALWS 1.0-beta,2013-04-06 18:08:00,
2013-04-06 12:13:00,49.8,27.1,30.04,WSW,251,6.0,11.0,41,0.00,,,0.00,32767.00,ALWS 1.0-beta,2013-04-06 18:13:00,
2013-04-06 12:18:00,50.0,27.8,30.04,WSW,255,10.0,11.0,42,0.00,,,0.00,32767.00,ALWS 1.0-beta,2013-04-06 18:18:00,
2013-04-06 12:23:00,50.5,27.7,30.03,WNW,286,13.0,14.0,41,0.00,,,0.00,32767.00,ALWS 1.0-beta,2013-04-06 18:23:00,
2013-04-06 12:28:00,50.3,27.5,30.03,West,277,10.0,13.0,41,0.00,,,0.00,32767.00,ALWS 1.0-beta,2013-04-06 18:28:00,
2013-04-06 12:33:00,50.3,26.9,30.02,WNW,282,9.0,9.0,40,0.00,,,0.00,32767.00,ALWS 1.0-beta,2013-04-06 18:33:00,
2013-04-06 12:38:00,50.4,27.0,30.02,WSW,253,0.0,0.0,40,0.00,,,0.00,32767.00,ALWS 1.0-beta,2013-04-06 18:38:00,
2013-04-06 12:43:00,50.6,26.6,30.01,NW,318,6.0,6.0,39,0.00,,,0.00,32767.00,ALWS 1.0-beta,2013-04-06 18:43:00,
2013-04-06 12:48:00,50.5,27.1,30.02,WSW,244,1.0,3.0,40,0.00,,,0.00,32767.00,ALWS 1.0-beta,2013-04-06 18:48:00,
2013-04-06 12:53:00,50.4,26.4,30.01,SSW,213,2.0,3.0,39,0.00,,,0.00,32767.00,ALWS 1.0-beta,2013-04-06 18:53:00,
2013-04-06 12:58:00,50.6,27.2,30.01,West,271,12.0,12.0,40,0.00,,,0.00,32767.00,ALWS 1.0-beta,2013-04-06 18:58:00,
2013-04-06 13:03:00,50.0,26.0,30.02,West,265,9.0,13.0,39,0.00,,,0.00,32767.00,ALWS 1.0-beta,2013-04-06 19:03:00,
2013-04-06 13:08:00,49.7,26.4,30.01,WSW,249,10.0,13.0,40,0.00,,,0.00,32767.00,ALWS 1.0-beta,2013-04-06 19:08:00,
2013-04-06 13:13:00,49.6,26.3,30.01,West,268,11.0,11.0,40,0.00,,,0.00,32767.00,ALWS 1.0-beta,2013-04-06 19:13:00,
2013-04-06 13:18:00,49.7,26.4,30.01,West,261,5.0,6.0,40,0.00,,,0.00,32767.00,ALWS 1.0-beta,2013-04-06 19:18:00,
2013-04-06 13:23:00,49.9,26.6,30.01,West,265,5.0,6.0,40,0.00,,,0.00,32767.00,ALWS 1.0-beta,2013-04-06 19:23:00,
2013-04-06 13:28:00,49.9,27.1,30.01,WNW,298,9.0,10.0,41,0.00,,,0.00,32767.00,ALWS 1.0-beta,2013-04-06 19:28:00,
2013-04-06 13:33:00,49.7,27.6,30.01,NW,307,7.0,9.0,42,0.00,,,0.00,32767.00,ALWS 1.0-beta,2013-04-06 19:33:00,
2013-04-06 13:39:00,49.7,28.1,30.01,West,280,2.0,2.0,43,0.00,,,0.00,32767.00,ALWS 1.0-beta,2013-04-06 19:39:00,
2013-04-06 13:44:00,49.9,27.1,30.00,NNW,332,10.0,10.0,41,0.00,,,0.00,32767.00,ALWS 1.0-beta,2013-04-06 19:44:00,
2013-04-06 13:49:00,49.9,27.1,30.00,NW,309,12.0,14.0,41,0.00,,,0.00,32767.00,ALWS 1.0-beta,2013-04-06 19:49:00,
2013-04-06 13:54:00,49.9,28.3,30.00,West,273,13.0,16.0,43,0.00,,,0.00,32767.00,ALWS 1.0-beta,2013-04-06 19:54:00,
2013-04-06 13:59:00,50.2,28.0,30.00,NNW,331,15.0,20.0,42,0.00,,,0.00,32767.00,ALWS 1.0-beta,2013-04-06 19:59:00,
2013-04-06 14:04:00,49.8,29.3,30.00,WNW,284,14.0,18.0,45,0.00,,,0.00,32767.00,ALWS 1.0-beta,2013-04-06 20:04:00,
2013-04-06 14:09:00,49.7,30.3,30.00,West,275,10.0,16.0,47,0.00,,,0.00,32767.00,ALWS 1.0-beta,2013-04-06 20:09:00,
2013-04-06 14:14:00,49.9,30.5,30.00,WNW,285,7.0,13.0,47,0.00,,,0.00,32767.00,ALWS 1.0-beta,2013-04-06 20:14:00,
2013-04-06 14:19:00,49.6,30.7,30.00,NW,311,13.0,13.0,48,0.00,,,0.00,32767.00,ALWS 1.0-beta,2013-04-06 20:19:00,
2013-04-06 14:25:00,49.1,30.3,30.00,WNW,298,15.0,16.0,48,0.00,,,0.00,32767.00,ALWS 1.0-beta,2013-04-06 20:25:00,
2013-04-06 14:31:00,48.7,30.9,29.99,NW,310,15.0,15.0,50,0.00,,,0.00,32767.00,ALWS 1.0-beta,2013-04-06 20:31:00,
2013-04-06 14:37:00,48.5,30.2,29.99,WNW,300,15.0,15.0,49,0.00,,,0.00,32767.00,ALWS 1.0-beta,2013-04-06 20:37:00,
2013-04-06 14:42:00,48.3,30.5,30.00,NW,315,18.0,21.0,50,0.00,,,0.00,32767.00,ALWS 1.0-beta,2013-04-06 20:42:00,
2013-04-06 14:47:00,47.4,31.6,30.00,WNW,294,29.0,29.0,54,0.00,,,0.00,32767.00,ALWS 1.0-beta,2013-04-06 20:47:00,
2013-04-06 14:52:00,45.9,32.0,30.01,WNW,284,20.0,20.0,58,0.00,,,0.00,32767.00,ALWS 1.0-beta,2013-04-06 20:52:00,
2013-04-06 14:57:00,45.2,32.6,30.01,WNW,292,17.0,17.0,61,0.00,,,0.00,32767.00,ALWS 1.0-beta,2013-04-06 20:57:00,
2013-04-06 15:02:00,44.7,32.9,30.02,WNW,282,21.0,21.0,63,0.00,,,0.00,32767.00,ALWS 1.0-beta,2013-04-06 21:02:00,
2013-04-06 15:08:00,44.0,32.6,30.02,WNW,298,25.0,25.0,64,0.00,,,0.00,32767.00,ALWS 1.0-beta,2013-04-06 21:08:00,
2013-04-06 15:13:00,43.2,33.0,30.02,WNW,301,19.0,19.0,67,0.00,,,0.00,32767.00,ALWS 1.0-beta,2013-04-06 21:13:00,
2013-04-06 15:18:00,42.4,33.3,30.02,NW,307,16.0,27.0,70,0.00,,,0.00,32767.00,ALWS 1.0-beta,2013-04-06 21:18:00,
2013-04-06 15:23:00,41.7,33.7,30.03,WNW,295,16.0,25.0,73,0.00,,,0.00,32767.00,ALWS 1.0-beta,2013-04-06 21:23:00,
2013-04-06 15:28:00,41.1,33.5,30.03,WNW,300,17.0,17.0,74,0.00,,,0.00,32767.00,ALWS 1.0-beta,2013-04-06 21:28:00,
2013-04-06 15:33:00,40.6,33.6,30.03,WNW,297,15.0,15.0,76,0.00,,,0.00,32767.00,ALWS 1.0-beta,2013-04-06 21:33:00,
2013-04-06 15:38:00,40.4,33.8,30.03,WNW,286,12.0,12.0,77,0.00,,,0.00,32767.00,ALWS 1.0-beta,2013-04-06 21:38:00,
2013-04-06 15:43:00,40.5,34.2,30.03,WNW,298,12.0,12.0,78,0.00,,,0.00,32767.00,ALWS 1.0-beta,2013-04-06 21:43:00,
2013-04-06 15:48:00,40.5,34.2,30.03,WNW,292,7.0,13.0,78,0.00,,,0.00,32767.00,ALWS 1.0-beta,2013-04-06 21:48:00,
2013-04-06 15:53:00,40.7,34.4,30.03,WNW,295,7.0,9.0,78,0.00,,,0.00,32767.00,ALWS 1.0-beta,2013-04-06 21:53:00,
2013-04-06 15:58:00,40.9,34.6,30.02,WNW,295,0.0,9.0,78,0.00,,,0.00,32767.00,ALWS 1.0-beta,2013-04-06 21:58:00,
2013-04-06 16:03:00,41.2,34.9,30.02,WNW,295,0.0,2.0,78,0.00,,,0.00,32767.00,ALWS 1.0-beta,2013-04-06 22:03:00,
2013-04-06 16:08:00,41.6,34.9,30.02,WNW,295,1.0,2.0,77,0.00,,,0.00,32767.00,ALWS 1.0-beta,2013-04-06 22:08:00,
2013-04-06 16:13:00,41.9,34.9,30.02,WNW,295,0.0,2.0,76,0.00,,,0.00,32767.00,ALWS 1.0-beta,2013-04-06 22:13:00,
2013-04-06 16:18:00,42.2,34.9,30.02,WNW,295,0.0,0.0,75,0.00,,,0.00,32767.00,ALWS 1.0-beta,2013-04-06 22:18:00,
2013-04-06 16:23:00,42.6,34.9,30.02,WNW,295,0.0,0.0,74,0.00,,,0.00,32767.00,ALWS 1.0-beta,2013-04-06 22:23:00,
2013-04-06 16:28:00,43.1,35.0,30.02,WNW,295,0.0,0.0,73,0.00,,,0.00,32767.00,ALWS 1.0-beta,2013-04-06 22:28:00,
2013-04-06 16:33:00,43.8,35.4,30.02,WNW,295,3.0,4.0,72,0.00,,,0.00,32767.00,ALWS 1.0-beta,2013-04-06 22:33:00,
2013-04-06 16:38:00,44.6,35.1,30.02,NW,307,0.0,4.0,69,0.00,,,0.00,32767.00,ALWS 1.0-beta,2013-04-06 22:38:00,
2013-04-06 16:43:00,45.1,34.4,30.01,NW,309,2.0,4.0,66,0.00,,,0.00,32767.00,ALWS 1.0-beta,2013-04-06 22:43:00,
2013-04-06 16:48:00,45.5,34.8,30.01,East,99,7.0,7.0,66,0.00,,,0.00,32767.00,ALWS 1.0-beta,2013-04-06 22:48:00,
2013-04-06 16:53:00,44.6,34.3,30.01,ESE,106,5.0,9.0,67,0.00,,,0.00,32767.00,ALWS 1.0-beta,2013-04-06 22:53:00,
2013-04-06 16:58:00,44.4,33.8,30.01,ESE,120,4.0,5.0,66,0.00,,,0.00,32767.00,ALWS 1.0-beta,2013-04-06 22:58:00,
2013-04-06 17:03:00,45.0,34.0,30.01,East,92,0.0,5.0,65,0.00,,,0.00,32767.00,ALWS 1.0-beta,2013-04-06 23:03:00,
2013-04-06 17:08:00,45.4,33.6,30.01,East,100,0.0,5.0,63,0.00,,,0.00,32767.00,ALWS 1.0-beta,2013-04-06 23:08:00,
2013-04-06 17:14:00,45.6,33.8,30.01,ESE,110,4.0,5.0,63,0.00,,,0.00,32767.00,ALWS 1.0-beta,2013-04-06 23:14:00,
2013-04-06 17:19:00,45.6,33.3,30.01,ESE,122,0.0,4.0,62,0.00,,,0.00,32767.00,ALWS 1.0-beta,2013-04-06 23:19:00,
2013-04-06 17:24:00,45.9,33.2,30.00,SSE,155,2.0,7.0,61,0.00,,,0.00,32767.00,ALWS 1.0-beta,2013-04-06 23:24:00,
2013-04-06 17:30:00,47.2,34.9,30.01,SSE,160,2.0,5.0,62,0.00,,,0.00,32767.00,ALWS 1.0-beta,2013-04-06 23:30:00,
2013-04-06 17:35:00,48.3,34.2,30.01,SSE,160,0.0,0.0,58,0.00,,,0.00,32767.00,ALWS 1.0-beta,2013-04-06 23:35:00,
2013-04-06 17:40:00,49.4,35.3,30.01,SSE,161,0.0,1.0,58,0.00,,,0.00,32767.00,ALWS 1.0-beta,2013-04-06 23:40:00,
2013-04-06 17:45:00,49.7,31.8,30.01,NW,326,5.0,12.0,50,0.00,,,0.00,32767.00,ALWS 1.0-beta,2013-04-06 23:45:00,
2013-04-06 17:50:00,48.4,31.1,30.00,NW,315,4.0,7.0,51,0.00,,,0.00,32767.00,ALWS 1.0-beta,2013-04-06 23:50:00,
2013-04-06 17:55:00,47.3,32.8,30.01,SW,217,4.0,9.0,57,0.00,,,0.00,32767.00,ALWS 1.0-beta,2013-04-06 23:55:00,
2013-04-06 18:01:00,47.0,32.1,30.00,South,176,3.0,4.0,56,0.00,,,0.00,32767.00,ALWS 1.0-beta,2013-04-07 00:01:00,
2013-04-06 18:08:00,47.7,32.8,30.01,West,265,7.0,7.0,56,0.00,,,0.00,32767.00,ALWS 1.0-beta,2013-04-07 00:08:00,
2013-04-06 18:13:00,48.5,32.2,30.01,West,265,0.0,0.0,53,0.00,,,0.00,32767.00,ALWS 1.0-beta,2013-04-07 00:13:00,
2013-04-06 18:18:00,48.7,31.4,30.01,NW,325,1.0,7.0,51,0.00,,,0.00,32767.00,ALWS 1.0-beta,2013-04-07 00:18:00,
2013-04-06 18:23:00,48.0,31.2,30.01,NW,314,4.0,8.0,52,0.00,,,0.00,32767.00,ALWS 1.0-beta,2013-04-07 00:23:00,
2013-04-06 18:28:00,47.3,31.5,30.01,WSW,250,9.0,9.0,54,0.00,,,0.00,32767.00,ALWS 1.0-beta,2013-04-07 00:28:00,
2013-04-06 18:33:00,47.2,32.3,30.01,SW,230,7.0,7.0,56,0.00,,,0.00,32767.00,ALWS 1.0-beta,2013-04-07 00:33:00,
2013-04-06 18:38:00,47.4,32.5,30.01,WSW,248,3.0,3.0,56,0.00,,,0.00,32767.00,ALWS 1.0-beta,2013-04-07 00:38:00,
2013-04-06 18:43:00,47.7,32.3,30.01,WSW,238,6.0,6.0,55,0.00,,,0.00,32767.00,ALWS 1.0-beta,2013-04-07 00:43:00,
2013-04-06 18:49:00,47.5,31.7,30.01,SW,221,5.0,5.0,54,0.00,,,0.00,32767.00,ALWS 1.0-beta,2013-04-07 00:49:00,
2013-04-06 18:54:00,47.4,31.6,30.01,SW,222,0.0,0.0,54,0.00,,,0.00,32767.00,ALWS 1.0-beta,2013-04-07 00:54:00,
2013-04-06 18:59:00,47.7,31.9,30.01,SW,222,0.0,0.0,54,0.00,,,0.00,32767.00,ALWS 1.0-beta,2013-04-07 00:59:00,
2013-04-06 19:05:00,48.2,32.8,30.01,SW,222,0.0,0.0,55,0.00,,,0.00,32767.00,ALWS 1.0-beta,2013-04-07 01:05:00,
2013-04-06 19:10:00,48.5,32.6,30.01,SW,222,0.0,3.0,54,0.00,,,0.00,32767.00,ALWS 1.0-beta,2013-04-07 01:10:00,
2013-04-06 19:15:00,48.8,32.4,30.01,SW,222,0.0,0.0,53,0.00,,,0.00,32767.00,ALWS 1.0-beta,2013-04-07 01:15:00,
2013-04-06 19:20:00,48.8,30.5,30.01,SW,222,1.0,1.0,49,0.00,,,0.00,32767.00,ALWS 1.0-beta,2013-04-07 01:20:00,
2013-04-06 19:25:00,48.4,30.1,30.01,SW,236,0.0,0.0,49,0.00,,,0.00,32767.00,ALWS 1.0-beta,2013-04-07 01:25:00,
2013-04-06 19:30:00,47.6,29.9,30.01,NW,316,2.0,2.0,50,0.00,,,0.00,32767.00,ALWS 1.0-beta,2013-04-07 01:30:00,
2013-04-06 19:35:00,46.9,29.2,30.01,NW,310,4.0,4.0,50,0.00,,,0.00,32767.00,ALWS 1.0-beta,2013-04-07 01:35:00,
2013-04-06 19:40:00,46.2,29.1,30.01,NW,310,3.0,3.0,51,0.00,,,0.00,32767.00,ALWS 1.0-beta,2013-04-07 01:40:00,
2013-04-06 19:45:00,45.6,28.5,30.01,NW,310,2.0,2.0,51,0.00,,,0.00,32767.00,ALWS 1.0-beta,2013-04-07 01:45:00,
2013-04-06 19:50:00,45.2,28.6,30.01,NW,310,5.0,5.0,52,0.00,,,0.00,32767.00,ALWS 1.0-beta,2013-04-07 01:50:00,
2013-04-06 19:55:00,45.0,28.5,30.01,NW,310,3.0,3.0,52,0.00,,,0.00,32767.00,ALWS 1.0-beta,2013-04-07 01:55:00,
2013-04-06 20:00:00,44.8,28.3,30.01,NW,310,2.0,2.0,52,0.00,,,0.00,32767.00,ALWS 1.0-beta,2013-04-07 02:00:00,
2013-04-06 20:05:00,44.5,28.5,30.01,NW,310,2.0,2.0,53,0.00,,,0.00,32767.00,ALWS 1.0-beta,2013-04-07 02:05:00,
2013-04-06 20:10:00,44.5,28.5,30.01,NW,310,0.0,0.0,53,0.00,,,0.00,32767.00,ALWS 1.0-beta,2013-04-07 02:10:00,
2013-04-06 20:15:00,44.3,28.3,30.01,NW,310,0.0,0.0,53,0.00,,,0.00,32767.00,ALWS 1.0-beta,2013-04-07 02:15:00,
2013-04-06 20:20:00,44.2,28.2,30.01,NW,310,0.0,1.0,53,0.00,,,0.00,32767.00,ALWS 1.0-beta,2013-04-07 02:20:00,
2013-04-06 20:25:00,43.3,28.2,30.01,NW,310,0.0,1.0,55,0.00,,,0.00,32767.00,ALWS 1.0-beta,2013-04-07 02:25:00,
2013-04-06 20:30:00,42.6,28.5,30.01,NNW,344,3.0,4.0,57,0.00,,,0.00,32767.00,ALWS 1.0-beta,2013-04-07 02:30:00,
2013-04-06 20:35:00,42.6,28.5,30.02,NNE,13,0.0,0.0,57,0.00,,,0.00,32767.00,ALWS 1.0-beta,2013-04-07 02:35:00,
2013-04-06 20:40:00,42.0,27.9,30.02,NE,38,3.0,6.0,57,0.00,,,0.00,32767.00,ALWS 1.0-beta,2013-04-07 02:40:00,
2013-04-06 20:45:00,41.9,28.2,30.02,NE,38,0.0,3.0,58,0.00,,,0.00,32767.00,ALWS 1.0-beta,2013-04-07 02:45:00,
2013-04-06 20:50:00,41.5,27.8,30.02,NE,42,0.0,4.0,58,0.00,,,0.00,32767.00,ALWS 1.0-beta,2013-04-07 02:50:00,
2013-04-06 20:55:00,41.3,28.1,30.02,NE,42,0.0,1.0,59,0.00,,,0.00,32767.00,ALWS 1.0-beta,2013-04-07 02:55:00,
2013-04-06 21:00:00,40.5,27.7,30.03,NE,42,0.0,1.0,60,0.00,,,0.00,32767.00,ALWS 1.0-beta,2013-04-07 03:00:00,
2013-04-06 21:05:00,40.5,27.7,30.03,NE,41,0.0,0.0,60,0.00,,,0.00,32767.00,ALWS 1.0-beta,2013-04-07 03:05:00,
2013-04-06 21:10:00,40.7,27.9,30.03,NE,42,0.0,0.0,60,0.00,,,0.00,32767.00,ALWS 1.0-beta,2013-04-07 03:10:00,
2013-04-06 21:15:00,40.2,27.4,30.03,NE,42,0.0,0.0,60,0.00,,,0.00,32767.00,ALWS 1.0-beta,2013-04-07 03:15:00,
2013-04-06 21:20:00,40.0,27.6,30.03,NE,42,0.0,1.0,61,0.00,,,0.00,32767.00,ALWS 1.0-beta,2013-04-07 03:20:00,
2013-04-06 21:25:00,39.9,27.6,30.03,NE,41,0.0,3.0,61,0.00,,,0.00,32767.00,ALWS 1.0-beta,2013-04-07 03:25:00,
2013-04-06 21:33:00,39.6,27.7,30.03,NE,42,0.0,0.0,62,0.00,,,0.00,32767.00,ALWS 1.0-beta,2013-04-07 03:33:00,
2013-04-06 21:38:00,39.4,27.9,30.03,NE,41,4.0,4.0,63,0.00,,,0.00,32767.00,ALWS 1.0-beta,2013-04-07 03:38:00,
2013-04-06 21:43:00,39.3,28.2,30.03,ENE,68,0.0,4.0,64,0.00,,,0.00,32767.00,ALWS 1.0-beta,2013-04-07 03:43:00,
2013-04-06 21:49:00,39.7,28.5,30.03,ENE,71,0.0,0.0,64,0.00,,,0.00,32767.00,ALWS 1.0-beta,2013-04-07 03:49:00,
2013-04-06 21:55:00,40.3,28.7,30.04,ENE,74,1.0,1.0,63,0.00,,,0.00,32767.00,ALWS 1.0-beta,2013-04-07 03:55:00,
2013-04-06 22:00:00,40.7,29.1,30.03,ENE,78,0.0,4.0,63,0.00,,,0.00,32767.00,ALWS 1.0-beta,2013-04-07 04:00:00,
2013-04-06 22:05:00,40.9,28.9,30.03,ENE,78,0.0,0.0,62,0.00,,,0.00,32767.00,ALWS 1.0-beta,2013-04-07 04:05:00,
2013-04-06 22:10:00,40.9,29.3,30.03,East,79,0.0,0.0,63,0.00,,,0.00,32767.00,ALWS 1.0-beta,2013-04-07 04:10:00,
2013-04-06 22:15:00,40.8,29.6,30.03,ENE,78,0.0,0.0,64,0.00,,,0.00,32767.00,ALWS 1.0-beta,2013-04-07 04:15:00,
2013-04-06 22:20:00,40.7,29.5,30.03,ENE,78,0.0,0.0,64,0.00,,,0.00,32767.00,ALWS 1.0-beta,2013-04-07 04:20:00,
2013-04-06 22:25:00,40.6,29.4,30.03,ENE,78,0.0,0.0,64,0.00,,,0.00,32767.00,ALWS 1.0-beta,2013-04-07 04:25:00,
2013-04-06 22:30:00,40.5,29.3,30.03,ENE,78,0.0,0.0,64,0.00,,,0.00,32767.00,ALWS 1.0-beta,2013-04-07 04:30:00,
2013-04-06 22:35:00,40.4,29.2,30.03,East,79,0.0,0.0,64,0.00,,,0.00,32767.00,ALWS 1.0-beta,2013-04-07 04:35:00,
2013-04-06 22:40:00,40.4,28.8,30.02,ENE,78,0.0,0.0,63,0.00,,,0.00,32767.00,ALWS 1.0-beta,2013-04-07 04:40:00,
2013-04-06 22:45:00,40.3,29.1,30.02,ENE,78,2.0,2.0,64,0.00,,,0.00,32767.00,ALWS 1.0-beta,2013-04-07 04:45:00,
2013-04-06 22:50:00,40.1,28.9,30.02,East,79,0.0,0.0,64,0.00,,,0.00,32767.00,ALWS 1.0-beta,2013-04-07 04:50:00,
2013-04-06 22:55:00,39.9,28.7,30.02,ENE,78,0.0,0.0,64,0.00,,,0.00,32767.00,ALWS 1.0-beta,2013-04-07 04:55:00,
2013-04-06 23:00:00,39.7,28.9,30.01,East,79,4.0,5.0,65,0.00,,,0.00,32767.00,ALWS 1.0-beta,2013-04-07 05:00:00,
2013-04-06 23:05:00,39.5,28.7,30.01,East,79,2.0,5.0,65,0.00,,,0.00,32767.00,ALWS 1.0-beta,2013-04-07 05:05:00,
2013-04-06 23:10:00,39.4,29.0,30.01,East,79,0.0,2.0,66,0.00,,,0.00,32767.00,ALWS 1.0-beta,2013-04-07 05:10:00,
2013-04-06 23:15:00,39.3,28.5,30.01,East,79,0.0,0.0,65,0.00,,,0.00,32767.00,ALWS 1.0-beta,2013-04-07 05:15:00,
2013-04-06 23:20:00,39.2,28.4,30.02,East,79,0.0,0.0,65,0.00,,,0.00,32767.00,ALWS 1.0-beta,2013-04-07 05:20:00,
2013-04-06 23:25:00,39.0,28.2,30.02,East,79,0.0,0.0,65,0.00,,,0.00,32767.00,ALWS 1.0-beta,2013-04-07 05:25:00,
2013-04-06 23:30:00,38.9,28.1,30.02,East,79,3.0,3.0,65,0.00,,,0.00,32767.00,ALWS 1.0-beta,2013-04-07 05:30:00,
2013-04-06 23:37:00,38.9,28.5,30.01,East,80,5.0,5.0,66,0.00,,,0.00,32767.00,ALWS 1.0-beta,2013-04-07 05:37:00,
2013-04-06 23:42:00,38.8,28.8,30.01,ENE,78,4.0,9.0,67,0.00,,,0.00,32767.00,ALWS 1.0-beta,2013-04-07 05:42:00,
2013-04-06 23:47:00,38.8,29.2,30.01,East,88,4.0,7.0,68,0.00,,,0.00,32767.00,ALWS 1.0-beta,2013-04-07 05:47:00,
2013-04-06 23:52:00,39.0,29.0,30.01,East,95,5.0,9.0,67,0.00,,,0.00,32767.00,ALWS 1.0-beta,2013-04-07 05:52:00,
2013-04-06 23:57:00,38.9,29.2,30.01,East,96,0.0,6.0,68,0.00,,,0.00,32767.00,ALWS 1.0-beta,2013-04-07 05:57:00,